Ketchikan, AK

8:30 PM AKDT on July 24, 2017 (GMT -0800)
Ketchikan International

Weather History for PAKT - May, 2012

Change the Weather History Date:

Sunday, May 20, 2012

  Actual Average Record
Temperature  
Mean Temperature 48 °F -  
Max Temperature 53 °F 55 °F 73 °F (2016)
Min Temperature 45 °F 41 °F 30 °F (2003)
Degree Days  
Heating Degree Days 17    
Moisture  
Dew Point 44 °F    
Average Humidity 88    
Maximum Humidity 96    
Minimum Humidity 74    
Precipitation  
Precipitation 0.33 in - - ()
Sea Level Pressure  
Sea Level Pressure 29.88 in    
Wind  
Wind Speed 4 mph (SE)    
Max Wind Speed 13 mph    
Max Gust Speed -    
Visibility 9 miles    
Events Rain    
Averages and records for this station are not official NWS values.
T = Trace of Precipitation, MM = Missing Value Source: NWS Daily Summary

Daily Weather History Graph

Daily Weather History Graph

Search for Another Location

Airport or City:

Trip Planner

Search our weather history database for the weather conditions in past years. The results will help you decide how hot, cold, wet, or windy it might be!

Date:

Astronomy

May. 20, 2012 Rise Set
Actual Time 4:27 AM AKDT 9:00 PM AKDT
Civil Twilight 3:37 AM AKDT 9:51 PM AKDT
Nautical Twilight 2:16 AM AKDT 11:14 PM AKDT
Astronomical Twilight Sun does not set Sun does not set
Moon 4:15 AM AKDT (5/20) 9:07 PM AKDT (5/20)
Length of Visible Light 18h 14m
Length of Day
16h 32m
Waning Crescent, 0% of the Moon is Illuminated
May 20
Waning Crescent
May 20
New
May 28
First Quarter
Jun 4
Full
Jun 11
Last Quarter

Hourly Weather History & Observations

Time (AKDT) Temp. Windchill Dew Point Humidity Pressure Visibility Wind Dir Wind Speed Gust Speed Precip Events Conditions
12:53 AM 46.0 °F 43.9 °F 39.9 °F 79% 30.01 in 10.0 mi SSE 4.6 mph - N/A   Overcast
1:53 AM 46.9 °F - 39.0 °F 74% 29.99 in 10.0 mi South 4.6 mph - N/A   Overcast
2:53 AM 46.0 °F 43.1 °F 39.0 °F 76% 29.98 in 10.0 mi SSE 5.8 mph - 0.00 in Rain Light Rain
3:53 AM 45.0 °F 43.5 °F 41.0 °F 86% 29.96 in 10.0 mi SE 3.5 mph - 0.00 in Rain Light Rain
4:53 AM 45.0 °F - 43.0 °F 93% 29.95 in 10.0 mi Calm Calm - 0.01 in Rain Light Rain
5:53 AM 45.0 °F - 43.0 °F 93% 29.94 in 10.0 mi Calm Calm - 0.01 in Rain Light Rain
6:06 AM 46.4 °F - 42.8 °F 87% 29.94 in 7.0 mi Calm Calm - 0.01 in Rain Light Rain
6:53 AM 46.0 °F 44.8 °F 43.0 °F 89% 29.94 in 7.0 mi Variable 3.5 mph - 0.02 in Rain Light Rain
7:53 AM 46.9 °F - 44.1 °F 90% 29.92 in 10.0 mi SSE 3.5 mph - 0.01 in Rain Light Rain
8:53 AM 48.0 °F - 44.1 °F 86% 29.92 in 10.0 mi ESE 3.5 mph - 0.01 in Rain Light Rain
9:53 AM 48.9 °F - 45.0 °F 86% 29.91 in 10.0 mi Calm Calm - 0.01 in Rain Light Rain
10:53 AM 50.0 °F - 46.0 °F 86% 29.90 in 10.0 mi Calm Calm - 0.00 in   Overcast
11:53 AM 51.1 °F - 46.9 °F 86% 29.89 in 10.0 mi ESE 3.5 mph - 0.00 in Rain Light Rain
12:53 PM 51.1 °F - 46.0 °F 83% 29.88 in 10.0 mi SSE 8.1 mph - 0.00 in Rain Light Rain
1:53 PM 48.9 °F - 45.0 °F 86% 29.89 in 10.0 mi ESE 12.7 mph - 0.01 in Rain Light Rain
2:53 PM 48.0 °F - 45.0 °F 89% 29.88 in 10.0 mi ESE 10.4 mph - 0.02 in Rain Light Rain
3:53 PM 48.0 °F - 46.0 °F 93% 29.86 in 8.0 mi SSE 4.6 mph - 0.01 in Rain Light Rain
4:53 PM 48.0 °F - 46.0 °F 93% 29.84 in 10.0 mi South 6.9 mph - 0.01 in Rain Light Rain
5:53 PM 48.0 °F - 46.0 °F 93% 29.82 in 7.0 mi SSE 3.5 mph - 0.03 in Rain Light Rain
6:53 PM 48.0 °F - 46.0 °F 93% 29.80 in 10.0 mi Calm Calm - 0.02 in Rain Light Rain
7:53 PM 48.9 °F - 46.9 °F 93% 29.78 in 9.0 mi Calm Calm - 0.04 in Rain Light Rain
8:53 PM 48.0 °F - 46.0 °F 93% 29.77 in 8.0 mi ESE 4.6 mph - 0.02 in Rain Light Rain
9:53 PM 48.0 °F - 46.9 °F 96% 29.76 in 10.0 mi Calm Calm - 0.03 in Rain Light Rain
10:53 PM 48.9 °F - 46.9 °F 93% 29.73 in 8.0 mi SE 4.6 mph - 0.03 in Rain Light Rain
11:53 PM 48.9 °F - 46.9 °F 93% 29.71 in 9.0 mi Variable 3.5 mph - 0.04 in Rain Light Rain